AEE359 LGSR-LGAV

Flight info

Callsign AEE359
Flight time 0h 28m
Altitude 22000
Route NETIS M601 MIL Y144 BADEL
Aircraft A320/M-SDE3FGHIRWY/LB1

Departure

Time 2026-04-20 18:19
Airport Santorini International Airport (LGSR)

Arrival

Time 2026-04-20 18:47
Airport Athens Eleftherios Venizelos International Airport (LGAV)
Time Latitude Longitude Altitude Speed Heading
2026-04-20 17:57 36.40303 25.47395 89 ft 0 kts 249°
2026-04-20 18:08 36.40303 25.47396 90 ft 1 kts 249°
2026-04-20 18:08 36.40313 25.47424 90 ft 4 kts 232°
2026-04-20 18:09 36.40332 25.47444 91 ft 4 kts 192°
2026-04-20 18:09 36.40349 25.47443 90 ft 1 kts 159°
2026-04-20 18:09 36.40352 25.47442 90 ft 0 kts 159°
2026-04-20 18:11 36.40345 25.47445 90 ft 2 kts 162°
2026-04-20 18:12 36.40321 25.47444 90 ft 5 kts 184°
2026-04-20 18:12 36.40280 25.47446 89 ft 7 kts 160°
2026-04-20 18:12 36.40263 25.47503 89 ft 9 kts 78°
2026-04-20 18:12 36.40261 25.47579 90 ft 10 kts 140°
2026-04-20 18:13 36.40191 25.47619 90 ft 13 kts 158°
2026-04-20 18:13 36.40100 25.47662 88 ft 16 kts 160°
2026-04-20 18:13 36.39989 25.47716 87 ft 19 kts 158°
2026-04-20 18:13 36.39856 25.47777 86 ft 22 kts 159°
2026-04-20 18:14 36.39703 25.47850 82 ft 26 kts 159°
2026-04-20 18:14 36.39528 25.47932 71 ft 20 kts 156°
2026-04-20 18:14 36.39425 25.47981 70 ft 18 kts 160°
2026-04-20 18:14 36.39292 25.48041 63 ft 23 kts 160°
2026-04-20 18:15 36.39135 25.48113 57 ft 15 kts 156°
2026-04-20 18:15 36.39053 25.48156 56 ft 9 kts 158°
2026-04-20 18:15 36.39003 25.48207 52 ft 8 kts 81°
2026-04-20 18:15 36.39006 25.48217 56 ft 1 kts 73°
2026-04-20 18:16 36.39008 25.48222 56 ft 0 kts 73°
2026-04-20 18:17 36.39009 25.48227 56 ft 2 kts 73°
2026-04-20 18:18 36.39015 25.48254 49 ft 6 kts 74°
2026-04-20 18:18 36.39037 25.48309 51 ft 9 kts 37°
2026-04-20 18:18 36.39181 25.48263 62 ft 48 kts 339°
2026-04-20 18:18 36.39738 25.48000 72 ft 120 kts 339°
2026-04-20 18:19 36.40668 25.47545 284 ft 151 kts 334°
2026-04-20 18:19 36.41558 25.47164 1246 ft 126 kts 338°
2026-04-20 18:19 36.42451 25.46835 1622 ft 148 kts 339°
2026-04-20 18:19 36.43547 25.46505 1914 ft 180 kts 343°
2026-04-20 18:20 36.44845 25.46162 2238 ft 203 kts 345°
2026-04-20 18:20 36.46280 25.45781 2738 ft 215 kts 345°
2026-04-20 18:20 36.47755 25.45385 3480 ft 218 kts 344°
2026-04-20 18:20 36.49243 25.44980 4277 ft 220 kts 345°
2026-04-20 18:21 36.50741 25.44562 5111 ft 221 kts 343°
2026-04-20 18:21 36.52103 25.43729 5906 ft 219 kts 317°
2026-04-20 18:21 36.52956 25.42164 6659 ft 222 kts 288°
2026-04-20 18:21 36.53079 25.40245 7406 ft 227 kts 264°
2026-04-20 18:22 36.52868 25.38321 8165 ft 229 kts 264°
2026-04-20 18:22 36.52645 25.36352 8945 ft 231 kts 264°
2026-04-20 18:22 36.52421 25.34363 9723 ft 233 kts 264°
2026-04-20 18:22 36.52197 25.32357 10455 ft 235 kts 264°
2026-04-20 18:23 36.51973 25.30343 11218 ft 236 kts 264°
2026-04-20 18:23 36.51824 25.28297 11924 ft 237 kts 275°
2026-04-20 18:23 36.52163 25.26299 12615 ft 241 kts 292°
2026-04-20 18:23 36.53062 25.24448 12857 ft 263 kts 308°
2026-04-20 18:24 36.54240 25.22577 13056 ft 286 kts 308°
2026-04-20 18:24 36.55496 25.20569 13215 ft 309 kts 307°
2026-04-20 18:24 36.56855 25.18384 13352 ft 330 kts 307°
2026-04-20 18:24 36.58299 25.16047 13593 ft 347 kts 307°
2026-04-20 18:25 36.59778 25.13640 14124 ft 353 kts 307°
2026-04-20 18:25 36.61274 25.11199 14719 ft 355 kts 307°
2026-04-20 18:25 36.62778 25.08748 15325 ft 357 kts 307°
2026-04-20 18:25 36.64291 25.06284 15896 ft 359 kts 307°
2026-04-20 18:26 36.65811 25.03799 16501 ft 361 kts 307°
2026-04-20 18:26 36.67334 25.01306 17114 ft 362 kts 307°
2026-04-20 18:26 36.68848 24.98791 17717 ft 364 kts 303°
2026-04-20 18:26 36.70000 24.96026 18301 ft 367 kts 291°
2026-04-20 18:27 36.70649 24.92948 18819 ft 370 kts 280°
2026-04-20 18:27 36.70946 24.89741 19356 ft 373 kts 278°
2026-04-20 18:27 36.71253 24.86524 19907 ft 375 kts 279°
2026-04-20 18:27 36.71581 24.83291 20428 ft 377 kts 279°
2026-04-20 18:28 36.71919 24.80045 20928 ft 379 kts 279°
2026-04-20 18:28 36.72260 24.76777 21409 ft 381 kts 279°
2026-04-20 18:28 36.72600 24.73487 21863 ft 384 kts 279°
2026-04-20 18:28 36.72940 24.70183 22004 ft 387 kts 279°
2026-04-20 18:29 36.73285 24.66792 22028 ft 400 kts 279°
2026-04-20 18:29 36.73636 24.63296 22021 ft 409 kts 279°
2026-04-20 18:29 36.73997 24.59767 22020 ft 411 kts 281°
2026-04-20 18:29 36.74801 24.56371 22019 ft 409 kts 296°
2026-04-20 18:30 36.76338 24.53399 22021 ft 408 kts 311°
2026-04-20 18:30 36.78466 24.51140 22018 ft 410 kts 327°
2026-04-20 18:30 36.81096 24.49723 22024 ft 415 kts 342°
2026-04-20 18:30 36.83909 24.48850 22013 ft 416 kts 343°
2026-04-20 18:31 36.86723 24.47992 22016 ft 416 kts 343°
2026-04-20 18:31 36.89540 24.47134 22014 ft 417 kts 343°
2026-04-20 18:31 36.92363 24.46276 22015 ft 417 kts 343°
2026-04-20 18:31 36.95184 24.45417 22014 ft 417 kts 343°
2026-04-20 18:32 36.97966 24.44562 22026 ft 417 kts 343°
2026-04-20 18:32 37.00792 24.43687 22020 ft 417 kts 343°
2026-04-20 18:32 37.03606 24.42813 22016 ft 417 kts 343°
2026-04-20 18:32 37.06425 24.41937 22011 ft 417 kts 343°
2026-04-20 18:33 37.09250 24.41062 22009 ft 417 kts 343°
2026-04-20 18:33 37.12068 24.40188 22008 ft 417 kts 343°
2026-04-20 18:33 37.14884 24.39314 22007 ft 417 kts 343°
2026-04-20 18:33 37.17645 24.38461 21995 ft 398 kts 343°
2026-04-20 18:34 37.20298 24.37646 21814 ft 388 kts 343°
2026-04-20 18:34 37.22936 24.36829 20636 ft 396 kts 343°
2026-04-20 18:34 37.25647 24.35981 19412 ft 406 kts 343°
2026-04-20 18:34 37.28336 24.35142 18816 ft 400 kts 343°
2026-04-20 18:35 37.31018 24.34311 18248 ft 394 kts 343°
2026-04-20 18:35 37.33665 24.33490 17640 ft 388 kts 343°
2026-04-20 18:35 37.36271 24.32679 17092 ft 382 kts 343°
2026-04-20 18:35 37.38836 24.31878 16556 ft 377 kts 343°
2026-04-20 18:36 37.41359 24.31092 16031 ft 371 kts 343°
2026-04-20 18:36 37.43857 24.30313 15492 ft 367 kts 343°
2026-04-20 18:36 37.46316 24.29541 15116 ft 358 kts 343°
2026-04-20 18:36 37.48765 24.28767 14938 ft 369 kts 343°
2026-04-20 18:37 37.51266 24.27971 14853 ft 374 kts 343°
2026-04-20 18:37 37.53793 24.27175 14488 ft 374 kts 343°
2026-04-20 18:37 37.56314 24.26391 13834 ft 372 kts 344°
2026-04-20 18:37 37.58803 24.25623 13137 ft 370 kts 344°
2026-04-20 18:38 37.61303 24.24848 12431 ft 367 kts 344°
2026-04-20 18:38 37.63777 24.24076 11745 ft 365 kts 344°
2026-04-20 18:38 37.66233 24.23304 11074 ft 363 kts 344°
2026-04-20 18:38 37.68677 24.22531 10419 ft 361 kts 345°
2026-04-20 18:39 37.71108 24.21762 9764 ft 359 kts 345°
2026-04-20 18:39 37.73524 24.20998 9053 ft 357 kts 345°
2026-04-20 18:39 37.75926 24.20239 8359 ft 355 kts 344°
2026-04-20 18:39 37.78296 24.19494 7686 ft 353 kts 344°
2026-04-20 18:40 37.80671 24.18747 7016 ft 350 kts 344°
2026-04-20 18:40 37.83038 24.18001 6357 ft 348 kts 344°
2026-04-20 18:40 37.85389 24.17261 5670 ft 346 kts 344°
2026-04-20 18:40 37.87723 24.16526 4995 ft 345 kts 344°
2026-04-20 18:41 37.90046 24.15791 4312 ft 343 kts 344°
2026-04-20 18:41 37.92358 24.15057 3631 ft 342 kts 344°
2026-04-20 18:41 37.94665 24.14326 3137 ft 337 kts 343°
2026-04-20 18:41 37.96859 24.13631 2989 ft 321 kts 343°
2026-04-20 18:42 37.98958 24.12965 2994 ft 302 kts 343°
2026-04-20 18:42 38.00940 24.12339 2996 ft 284 kts 343°
2026-04-20 18:42 38.02810 24.11748 3001 ft 269 kts 343°
2026-04-20 18:42 38.04584 24.11188 3001 ft 255 kts 343°
2026-04-20 18:43 38.06207 24.10500 3004 ft 236 kts 324°
2026-04-20 18:43 38.07204 24.09014 2995 ft 214 kts 288°
2026-04-20 18:43 38.07308 24.07197 2999 ft 208 kts 255°
2026-04-20 18:43 38.06578 24.05635 3004 ft 208 kts 221°
2026-04-20 18:44 38.05350 24.04727 2876 ft 202 kts 213°
2026-04-20 18:44 38.04305 24.03627 2658 ft 196 kts 224°
2026-04-20 18:44 38.03261 24.02514 2407 ft 195 kts 220°
2026-04-20 18:44 38.02188 24.01463 2149 ft 193 kts 219°
2026-04-20 18:45 38.01139 24.00457 1899 ft 184 kts 217°
2026-04-20 18:45 38.00149 23.99511 1652 ft 172 kts 217°
2026-04-20 18:45 37.99228 23.98631 1429 ft 158 kts 217°
2026-04-20 18:45 37.98385 23.97830 1252 ft 146 kts 216°
2026-04-20 18:46 37.97580 23.97082 1052 ft 143 kts 217°
2026-04-20 18:46 37.96797 23.96319 769 ft 142 kts 218°
2026-04-20 18:46 37.96022 23.95572 661 ft 140 kts 217°
2026-04-20 18:46 37.95245 23.94829 459 ft 140 kts 217°
2026-04-20 18:47 37.94473 23.94094 333 ft 139 kts 217°
2026-04-20 18:47 37.93767 23.93426 296 ft 89 kts 217°
2026-04-20 18:47 37.93512 23.93193 293 ft 30 kts 207°
2026-04-20 18:47 37.93308 23.93133 297 ft 29 kts 188°
2026-04-20 18:48 37.93178 23.93115 299 ft 9 kts 160°
2026-04-20 18:48 37.93197 23.93166 299 ft 8 kts 33°
2026-04-20 18:48 37.93248 23.93212 300 ft 10 kts 42°
2026-04-20 18:48 37.93307 23.93271 300 ft 12 kts 37°
2026-04-20 18:49 37.93377 23.93338 300 ft 14 kts 36°
2026-04-20 18:49 37.93426 23.93437 301 ft 15 kts 104°
2026-04-20 18:49 37.93366 23.93549 300 ft 16 kts 127°
2026-04-20 18:49 37.93294 23.93671 301 ft 18 kts 126°
2026-04-20 18:50 37.93210 23.93808 303 ft 21 kts 128°
2026-04-20 18:50 37.93119 23.93963 303 ft 23 kts 127°
2026-04-20 18:50 37.93016 23.94133 303 ft 25 kts 129°
2026-04-20 18:50 37.92912 23.94306 302 ft 16 kts 127°
2026-04-20 18:51 37.92894 23.94423 303 ft 15 kts 46°
2026-04-20 18:51 37.92983 23.94502 301 ft 17 kts 37°
2026-04-20 18:51 37.93083 23.94598 303 ft 19 kts 36°
2026-04-20 18:51 37.93196 23.94706 304 ft 22 kts 37°
2026-04-20 18:52 37.93324 23.94827 301 ft 24 kts 37°
2026-04-20 18:52 37.93465 23.94961 301 ft 27 kts 37°
2026-04-20 18:52 37.93564 23.95050 301 ft 7 kts 19°
2026-04-20 18:52 37.93605 23.95021 300 ft 8 kts 311°
2026-04-20 18:53 37.93656 23.94982 301 ft 9 kts 316°
2026-04-20 18:53 37.93681 23.94944 303 ft 6 kts 308°
2026-04-20 18:53 37.93693 23.94924 301 ft 0 kts 306°